This is the latest recevied weather packets stored in our database for station/object KK4WXG. If no packets are shown the sender has not sent any weather packets the latest 10 day(s).
| Time | Temp. | Humidity | Pressure | Rain* | Wind** | Luminosity | Snow |
|---|---|---|---|---|---|---|---|
| 1777855492 | 12.22° C | 38% | 1013.8 hPa | 0 mm | - | 0 W/m² | - |
| 1777855189 | 12.78° C | 37% | 1013.8 hPa | 0 mm | - | 0 W/m² | - |
| 1777854885 | 12.78° C | 35% | 1013.9 hPa | 0 mm | - | 0 W/m² | - |
| 1777854582 | 12.78° C | 36% | 1013.7 hPa | 0 mm | - | 0 W/m² | - |
| 1777854279 | 13.33° C | 35% | 1013.6 hPa | 0 mm | - | 0 W/m² | - |
| 1777853976 | 13.33° C | 36% | 1013.8 hPa | 0 mm | - | 0 W/m² | - |
| 1777853673 | 13.89° C | 34% | 1013.9 hPa | 0 mm | - | 1 W/m² | - |
| 1777853370 | 13.89° C | 34% | 1014 hPa | 0 mm | - | 2 W/m² | - |
| 1777853067 | 13.89° C | 34% | 1013.9 hPa | 0 mm | - | 4 W/m² | - |
| 1777852764 | 13.89° C | 34% | 1013.6 hPa | 0 mm | - | 7 W/m² | - |
| 1777852462 | 13.89° C | 34% | 1013.8 hPa | 0 mm | - | 10 W/m² | - |
| 1777852159 | 14.44° C | 33% | 1013.4 hPa | 0 mm | - | 14 W/m² | - |
| 1777851857 | 15° C | 33% | 1013.6 hPa | 0 mm | - | 19 W/m² | - |
| 1777851555 | 16.11° C | 31% | 1013.6 hPa | 0 mm | - | 25 W/m² | - |
| 1777851251 | 16.11° C | 33% | 1013.5 hPa | 0 mm | - | 30 W/m² | - |
| 1777850947 | 16.11° C | 30% | 1013.4 hPa | 0 mm | - | 35 W/m² | - |
| 1777850645 | 16.11° C | 32% | 1013.3 hPa | 0 mm | - | 40 W/m² | - |
| 1777850342 | 16.11° C | 32% | 1013.3 hPa | 0 mm | - | 45 W/m² | - |
| 1777850039 | 16.11° C | 30% | 1013.1 hPa | 0 mm | - | 53 W/m² | - |
| 1777849735 | 16.67° C | 30% | 1013.2 hPa | 0 mm | - | 62 W/m² | - |
| 1777849432 | 16.67° C | 30% | 1013.2 hPa | 0 mm | - | 69 W/m² | - |
| 1777849130 | 16.67° C | 30% | 1013.3 hPa | 0 mm | - | 81 W/m² | - |
| 1777848826 | 16.67° C | 29% | 1013.2 hPa | 0 mm | - | 92 W/m² | - |
| 1777848522 | 17.22° C | 29% | 1013.1 hPa | 0 mm | - | 105 W/m² | - |
| 1777848219 | 17.22° C | 30% | 1013.1 hPa | 0 mm | - | 119 W/m² | - |
* Rain latest hour (hover to see other rain measurements)
** Current wind speed in m/s (hover to see current wind gust speed)